Weather History for Torrington, WY

Change the Weather History Date:

Wednesday, March 7, 2012

  Actual Average Record
Temperature  
Mean Temperature 31 °F 36 °F  
Max Temperature 38 °F 49 °F 67 °F (2007)
Min Temperature 24 °F 22 °F 11 °F (2011)
Degree Days  
Heating Degree Days 34 29  
Month to date heating degree days 184 211  
Since 1 July heating degree days 4922 5055  
Cooling Degree Days 0 0  
Month to date cooling degree days 0 0  
Year to date cooling degree days 0 0  
Moisture  
Dew Point 16 °F    
Average Humidity 54    
Maximum Humidity 72    
Minimum Humidity 35    
Precipitation  
Precipitation 0.00 in 0.01 in 0.26 in (2014)
Month to date precipitation 0.00 0.08  
Year to date precipitation 0.72 0.68  
Sea Level Pressure  
Sea Level Pressure 29.98 in    
Wind  
Wind Speed 11 mph (NNW)    
Max Wind Speed 30 mph    
Max Gust Speed 39 mph    
Visibility 10 miles    
Events      
T = Trace of Precipitation, MM = Missing Value Source: NWS Daily Summary

Daily Weather History Graph

Daily Weather History Graph

Search for Another Location

Airport:

Trip Planner

Search our weather history database for the weather conditions in past years. The results will help you decide how hot, cold, wet, or windy it might be!

Date:

Astronomy

Mar. 07, 2012 Rise Set
Actual Time 6:21 AM MST 5:54 PM MST
Civil Twilight 5:53 AM MST 6:22 PM MST
Nautical Twilight 5:20 AM MST 6:54 PM MST
Astronomical Twilight 4:48 AM MST 7:27 PM MST
Moon 5:34 PM MST (3/7) 5:32 AM MST (3/7)
Length of Visible Light 12h 29m
Length of Day
11h 33m
Waxing Gibbous, 99% of the Moon is Illuminated
Mar 7
Waxing Gibbous
Mar 8
Full
Mar 14
Last Quarter
Mar 22
New
Mar 30
First Quarter

Hourly Weather History & Observations

Time (MST) Temp. Windchill Dew Point Humidity Pressure Visibility Wind Dir Wind Speed Gust Speed Precip Events Conditions
12:53 AM 30.9 °F 19.1 °F 21.9 °F 69% 29.65 in 10.0 mi NNW 18.4 mph 31.1 mph N/A   Overcast
1:53 AM 28.9 °F 16.9 °F 19.9 °F 69% 29.70 in 10.0 mi NNW 17.3 mph 26.5 mph N/A   Overcast
2:53 AM 28.9 °F 17.3 °F 19.0 °F 67% 29.72 in 10.0 mi NNW 16.1 mph 25.3 mph N/A   Overcast
3:53 AM 28.0 °F 16.1 °F 18.0 °F 66% 29.76 in 10.0 mi NNW 16.1 mph 26.5 mph N/A   Overcast
4:53 AM 28.0 °F 17.0 °F 17.1 °F 63% 29.80 in 10.0 mi NNW 13.8 mph 25.3 mph N/A   Overcast
5:41 AM 26.6 °F 15.7 °F 17.6 °F 69% 29.83 in 10.0 mi NNW 12.7 mph 23.0 mph N/A   Overcast
5:53 AM 28.0 °F 17.0 °F 17.1 °F 63% 29.83 in 10.0 mi NNW 13.8 mph 21.9 mph N/A   Overcast
6:53 AM 28.0 °F 19.3 °F 18.0 °F 66% 29.87 in 10.0 mi NNW 9.2 mph - N/A   Overcast
7:53 AM 28.0 °F 18.6 °F 15.1 °F 58% 29.91 in 10.0 mi NNW 10.4 mph - N/A   Overcast
11:53 AM 33.1 °F 26.1 °F 12.0 °F 42% 29.97 in 10.0 mi NNW 8.1 mph - N/A   Overcast
12:53 PM 34.0 °F 26.0 °F 10.9 °F 38% 29.96 in 10.0 mi NW 10.4 mph - N/A   Overcast
1:53 PM 35.1 °F 28.6 °F 12.0 °F 39% 29.97 in 10.0 mi WNW 8.1 mph - N/A   Overcast
2:53 PM 37.0 °F 31.0 °F 12.9 °F 37% 29.98 in 10.0 mi NW 8.1 mph - N/A   Overcast
3:53 PM 37.0 °F 30.4 °F 12.0 °F 36% 29.99 in 10.0 mi NW 9.2 mph - N/A   Scattered Clouds
4:53 PM 36.0 °F 30.3 °F 12.0 °F 37% 30.04 in 10.0 mi NW 6.9 mph - N/A   Scattered Clouds
5:53 PM 34.0 °F 27.2 °F 19.0 °F 54% 30.09 in 10.0 mi NNW 8.1 mph - N/A   Overcast
6:53 PM 34.0 °F 28.0 °F 17.1 °F 50% 30.14 in 10.0 mi NNW 6.9 mph - N/A   Overcast
7:53 PM 30.0 °F 24.1 °F 17.1 °F 59% 30.18 in 10.0 mi NW 5.8 mph - N/A   Partly Cloudy
8:53 PM 26.1 °F 18.4 °F 15.1 °F 63% 30.26 in 10.0 mi North 6.9 mph - N/A   Clear
9:53 PM 25.0 °F 18.1 °F 12.9 °F 60% 30.30 in 10.0 mi NNW 5.8 mph - N/A   Mostly Cloudy
10:53 PM 28.0 °F 20.8 °F 14.0 °F 56% 30.32 in 10.0 mi West 6.9 mph - N/A   Overcast
11:53 PM 26.1 °F 15.0 °F 12.9 °F 58% 30.34 in 10.0 mi NW 12.7 mph - N/A   Clear